Погода в Огороне

Россия / Амурская область     53°57′40″N   129°08′39″E
темп.,
°C
ветер,
м/с
пор.,
м/с
влажн.,
%
обл.,
%
осадки,
мм/ч
давл.,
гПа
погр.,
м
19 сентября, вс
вс1900:00+3зсз61471100 0.0 1014603
03:00+3зсз5127593 0.0 1014579
06:00+1зсз4118495 0.0 1015352
09:00+5зсз68646 0.0 1015841
12:00+8зсз79515 0.0 10141327
15:00+10зсз8104853 0.0 10141746
18:00+7з511615 0.0 1015417
21:00+3ююз22750 0.0 101616
20 сентября, пн
пн2000:00+3ю33745 0.0 101634
03:00+2ю45795 0.0 101569
06:00+2ю46896 0.0 101586
09:00+8ююз3366100 0.0 1014299
12:00+11ююз3458100 0.0 1013665
15:00+13ююз235888 0.0 1011883
18:00+9ю017913 0.0 101211
21:00+6юв11905 0.0 101310
21 сентября, вт
вт2100:00+5ююв11905 0.0 101310
03:00+4вюв00905 0.0 101410
06:00+3ссв11915 0.0 101410
09:00+9с22755 0.0 1014278
12:00+12с33601 0.0 1013741
15:00+13с33530 0.0 1012948
18:00+9ссв33710 0.0 101227
21:00+6в22845 0.0 101412
22 сентября, ср
ср2200:00+5всв22855 0.0 101414
03:00+4вюв118828 0.0 101511
06:00+3св11905 0.0 101612
09:00+10св13595 0.0 1016262
12:00+15св333510 0.0 1015999
15:00+16ссв23325 0.0 1015901
18:00+9вюв1158100 0.0 101712
21:00+6ю226484 0.0 102013
23 сентября, чт
чт2300:00+5всв11683 0.0 102110
03:00+3св117118 0.0 102310
06:00+3с117511 0.0 102410
09:00+9зсз10545 0.0 1024212
12:00+14ссз12425 0.0 1023834
15:00+14ссз22413 0.0 1022923
18:00+9всв22640 0.0 102312
21:00+7ююв326732 0.0 102418